Location: Il Ritiro
(43.4167°N, 13.1333°E)
Time: 08:07:10
(UTC+00:00)

ATLAS 5 CENTAUR R/B - Pass Details

Date: 05 July 2020
Orbit: 534 x 1124 km, 63.4° (Epoch: 30 July)

Event Time Altitude Azimuth Distance (km) Brightness Sun altitude
Rises 21:05:23 0° 248° (WSW) 2,717 5.0 -17.8°
Reaches altitude 10° 21:07:45 10° 261° (W) 1,870 4.3 -18.0°
Maximum altitude 21:11:21 27° 320° (NW) 1,172 3.8 -18.3°
Drops below altitude 10° 21:15:21 10° 19° (NNE) 2,094 4.8 -18.7°
Sets 21:18:10 0° 32° (NNE) 3,117 5.6 -18.9°
